Lawrence, MA

4:17 AM EDT on October 14, 2019 (GMT -0400)
Lawrence Municipal

Weather History for KLWM - August, 2019

Change the Weather History Date:

Saturday, August 24, 2019

  Actual Average Record
Temperature  
Mean Temperature 64 °F -  
Max Temperature 73 °F 79 °F 95 °F (1947)
Min Temperature 54 °F 56 °F 47 °F (1971)
Degree Days  
Heating Degree Days 2    
Growing Degree Days 14 (Base 50)    
Moisture  
Dew Point 53 °F    
Average Humidity 69    
Maximum Humidity 93    
Minimum Humidity 53    
Precipitation  
Precipitation 0.00 in - - ()
Sea Level Pressure  
Sea Level Pressure 30.19 in    
Wind  
Wind Speed 4 mph (ENE)    
Max Wind Speed 12 mph    
Max Gust Speed 17 mph    
Visibility 10 miles    
Events      
Averages and records for this station are not official NWS values.
T = Trace of Precipitation, MM = Missing Value Source: NWS Daily Summary

Daily Weather History Graph

Daily Weather History Graph

Search for Another Location

Airport or City:

Astronomy

Aug. 24, 2019 Rise Set
Actual Time 6:00 AM EDT 7:32 PM EDT
Civil Twilight 5:30 AM EDT 8:02 PM EDT
Nautical Twilight 4:54 AM EDT 8:37 PM EDT
Astronomical Twilight 4:16 AM EDT 9:16 PM EDT
Moon No Moon Rise 2:48 PM EDT (8/24)
Length of Visible Light 14h 31m
Length of Day
13h 32m
Last Quarter, 39% of the Moon is Illuminated
Aug 24
Last Quarter
Aug 30
New
Sep 5
First Quarter
Sep 14
Full
Sep 21
Last Quarter

Hourly Weather History & Observations

Time (EDT) Temp. Dew Point Humidity Pressure Visibility Wind Dir Wind Speed Gust Speed Precip Events Conditions
12:54 AM 60.1 °F 50.0 °F 69% 30.08 in 10.0 mi North 4.6 mph - N/A   Clear
1:54 AM 55.9 °F 50.0 °F 80% 30.09 in 10.0 mi Calm Calm - N/A   Clear
2:54 AM 57.0 °F 50.0 °F 77% 30.09 in 10.0 mi Calm Calm - N/A   Clear
3:54 AM 57.0 °F 48.9 °F 74% 30.09 in 10.0 mi Calm Calm - N/A   Clear
4:54 AM 55.9 °F 48.9 °F 77% 30.11 in 10.0 mi Calm Calm - N/A   Clear
5:54 AM 54.0 °F 48.9 °F 83% 30.12 in 10.0 mi Calm Calm - N/A   Clear
6:54 AM 55.9 °F 50.0 °F 80% 30.14 in 10.0 mi Calm Calm - N/A   Clear
7:54 AM 59.0 °F 51.1 °F 75% 30.16 in 10.0 mi North 3.5 mph - N/A   Clear
8:54 AM 64.0 °F 52.0 °F 65% 30.17 in 10.0 mi NNE 5.8 mph - N/A   Clear
9:54 AM 68.0 °F 52.0 °F 56% 30.18 in 10.0 mi NNE 11.5 mph - N/A   Clear
10:54 AM 69.1 °F 53.1 °F 57% 30.18 in 10.0 mi NNE 8.1 mph - N/A   Clear
11:54 AM 72.0 °F 54.0 °F 53% 30.19 in 10.0 mi East 10.4 mph - N/A   Scattered Clouds
12:54 PM 70.0 °F 55.0 °F 59% 30.19 in 10.0 mi ENE 6.9 mph - N/A   Mostly Cloudy
1:54 PM 72.0 °F 55.0 °F 55% 30.20 in 10.0 mi NE 10.4 mph 17.3 mph N/A   Scattered Clouds
2:54 PM 72.0 °F 57.0 °F 59% 30.21 in 10.0 mi Variable 6.9 mph - N/A   Partly Cloudy
3:54 PM 73.0 °F 55.9 °F 55% 30.21 in 10.0 mi East 10.4 mph - N/A   Clear
4:54 PM 71.1 °F 55.0 °F 57% 30.22 in 10.0 mi East 10.4 mph - N/A   Clear
5:54 PM 70.0 °F 55.0 °F 59% 30.24 in 10.0 mi East 6.9 mph - N/A   Clear
6:54 PM 68.0 °F 53.1 °F 59% 30.25 in 10.0 mi ENE 8.1 mph - N/A   Clear
7:54 PM 64.9 °F 55.0 °F 70% 30.27 in 10.0 mi East 3.5 mph - N/A   Clear
8:54 PM 64.0 °F 57.0 °F 78% 30.30 in 10.0 mi Calm Calm - N/A   Clear
9:54 PM 61.0 °F 55.9 °F 83% 30.31 in 10.0 mi Calm Calm - N/A   Clear
10:54 PM 60.1 °F 57.0 °F 90% 30.32 in 10.0 mi Calm Calm - N/A   Mostly Cloudy
11:54 PM 60.1 °F 57.9 °F 93% 30.32 in 10.0 mi Calm Calm - N/A   Overcast